period_start,C,m1,H,J0,J1,J2,J3,J4,J5,JA,JB,JC,JD,JJ,JK,JN,#
2016-09-19 00:02:22,0.03,0.80,0.00,20.69,27.12,30.37,14.89,47.42,1026.38,2036.75,3192.16,2917.62,3295.45,600.07,606.61,23.99,0000 0000 0000 0000 000000
2016-09-19 00:07:23,0.03,0.81,0.00,20.71,27.12,30.36,14.86,47.33,1026.38,2036.84,3192.00,2917.06,3295.02,599.86,606.35,24.04,0000 0000 0000 0000 000000
2016-09-19 00:12:25,0.01,0.81,0.00,20.71,27.12,30.39,14.80,47.46,1026.38,2036.86,3191.53,2917.02,3294.98,599.51,605.95,24.09,0000 0000 0000 0000 000000
2016-09-19 00:17:26,0.01,0.81,0.00,20.76,27.12,30.37,14.89,47.48,1026.38,2036.85,3191.04,2916.99,3294.84,599.86,606.13,24.14,0000 0000 0000 0000 000000
2016-09-19 00:22:27,0.02,0.81,0.00,20.81,27.12,30.36,14.86,47.53,1026.38,2036.88,3190.98,2916.93,3294.32,600.09,606.23,24.19,0000 0000 0000 0000 000000
2016-09-19 00:27:28,0.03,0.81,0.00,20.71,27.12,30.36,14.94,47.56,1026.38,2036.88,3190.58,2916.36,3294.01,599.83,606.26,24.24,0000 0000 0000 0000 000000
2016-09-19 00:32:30,-0.02,0.81,0.00,20.76,27.12,30.34,14.94,47.55,1026.38,2036.64,3190.01,2916.01,3293.94,600.37,606.87,24.29,0000 0000 0000 0000 000000
2016-09-19 00:37:31,0.03,0.81,0.00,20.80,27.12,30.32,14.79,47.16,1026.38,2036.71,3189.97,2916.00,3293.91,599.83,606.05,24.34,0000 0000 0000 0000 000000
2016-09-19 00:42:32,0.02,0.81,0.00,20.70,27.12,30.35,14.84,47.33,1026.38,2036.87,3189.71,2916.00,3293.66,599.92,606.48,24.39,0000 0000 0000 0000 000000
2016-09-19 00:47:34,0.02,0.81,0.00,20.65,27.12,30.33,14.86,47.29,1026.38,2036.91,3189.10,2915.99,3293.20,599.73,606.21,24.44,0000 0000 0000 0000 000000
2016-09-19 00:52:35,0.00,0.81,0.00,20.58,27.12,30.31,14.89,47.25,1026.38,2036.96,3189.02,2915.99,3293.11,600.07,606.85,24.49,0000 0000 0000 0000 000000
2016-09-19 00:57:36,0.00,0.81,0.00,20.52,27.11,30.30,14.91,47.30,1026.38,2036.97,3189.01,2915.95,3293.02,599.77,606.60,24.54,0000 0000 0000 0000 000000
2016-09-19 01:02:37,0.00,0.81,0.00,20.42,27.10,30.29,14.94,47.38,1026.38,2036.97,3189.00,2915.92,3293.02,599.79,606.86,24.59,0000 0000 0000 0000 000000
2016-09-19 01:07:39,0.00,0.81,0.00,20.34,27.09,30.30,14.83,47.37,1026.39,2036.99,3189.00,2915.91,3293.03,599.79,607.04,24.64,0000 0000 0000 0000 000000
2016-09-19 01:12:40,0.00,0.81,0.00,20.28,27.07,30.28,14.88,47.31,1026.39,2036.99,3188.98,2915.88,3293.01,600.00,607.49,24.69,0000 0000 0000 0000 000000
2016-09-19 01:17:41,0.00,0.81,0.00,20.18,27.05,30.23,14.92,47.44,1026.39,2036.99,3188.98,2915.96,3293.03,599.79,607.30,24.74,0000 0000 0000 0000 000000
2016-09-19 01:22:43,0.00,0.81,0.00,20.14,27.02,30.21,15.05,47.36,1026.39,2036.99,3188.99,2915.97,3293.06,600.49,608.09,24.79,0000 0000 0000 0000 000000
2016-09-19 01:27:44,-0.00,0.81,0.00,20.00,27.00,30.20,14.90,47.28,1026.38,2036.99,3188.99,2915.98,3293.32,599.72,607.67,24.84,0000 0000 0000 0000 000000
2016-09-19 01:32:45,-0.00,0.81,0.00,19.97,26.96,30.17,15.00,47.55,1026.38,2037.00,3188.99,2915.99,3293.89,600.30,608.21,24.89,0000 0000 0000 0000 000000
2016-09-19 01:37:46,0.00,0.81,0.00,19.94,26.94,30.13,14.99,47.48,1026.38,2037.04,3189.00,2916.00,3293.97,599.90,608.06,24.94,0000 0000 0000 0000 000000
2016-09-19 01:42:48,0.01,0.81,0.00,19.99,26.91,30.09,14.97,47.32,1026.38,2037.14,3189.02,2916.02,3293.99,600.32,608.30,24.99,0000 0000 0000 0000 000000
2016-09-19 01:47:49,0.01,0.81,0.00,19.95,26.88,30.07,14.88,47.49,1026.38,2037.37,3189.09,2916.10,3293.99,599.43,607.45,25.04,0000 0000 0000 0000 000000
2016-09-19 01:52:50,0.02,0.82,0.00,19.98,26.85,30.02,14.89,47.54,1026.38,2037.84,3189.48,2916.67,3294.02,599.43,607.49,25.09,0000 0000 0000 0000 000000
2016-09-19 01:57:51,-0.01,0.82,0.00,19.96,26.83,30.00,14.98,47.62,1026.38,2037.97,3189.78,2916.92,3294.24,599.83,607.88,25.14,0000 0000 0000 0000 000000
2016-09-19 02:02:52,-0.01,0.81,0.00,19.97,26.81,30.01,15.00,47.58,1026.38,2037.99,3189.98,2916.99,3294.85,600.15,608.08,25.19,0000 0000 0000 0000 000000
2016-09-19 02:07:54,0.00,0.81,0.00,19.94,26.78,29.95,15.06,47.81,1026.38,2037.99,3189.99,2916.99,3294.96,600.33,608.33,25.24,0000 0000 0000 0000 000000
2016-09-19 02:12:55,0.00,0.81,0.00,19.97,26.76,29.88,14.98,47.75,1026.38,2037.99,3189.99,2916.99,3294.99,600.02,608.05,25.30,0000 0000 0000 0000 000000
2016-09-19 02:17:56,0.00,0.81,0.00,20.05,26.75,29.89,14.93,47.53,1026.38,2038.00,3189.99,2917.01,3294.99,600.27,608.02,25.35,0000 0000 0000 0000 000000
2016-09-19 02:22:57,0.00,0.81,0.00,20.11,26.73,29.85,14.87,47.46,1026.38,2038.01,3190.00,2917.01,3294.99,599.59,607.32,25.40,0000 0000 0000 0000 000000
2016-09-19 02:27:58,-0.00,0.81,0.00,20.19,26.72,29.79,14.87,47.25,1026.38,2038.01,3190.00,2917.01,3295.00,600.19,607.67,25.45,0000 0000 0000 0000 000000
2016-09-19 02:32:59,0.01,0.81,0.00,20.15,26.72,29.80,14.87,47.40,1026.38,2038.04,3190.00,2917.00,3295.00,600.03,607.42,25.50,0000 0000 0000 0000 000000
2016-09-19 02:38:01,0.00,0.81,0.00,20.16,26.70,29.80,14.88,47.27,1026.37,2038.11,3190.01,2917.04,3295.03,599.75,607.45,25.55,0000 0000 0000 0000 000000
2016-09-19 02:43:02,0.04,0.82,0.00,20.21,26.70,29.81,14.93,47.58,1026.38,2038.37,3190.01,2917.11,3295.06,599.90,607.38,25.60,0000 0000 0000 0000 000000
2016-09-19 02:48:03,0.01,0.82,0.00,20.21,26.70,29.80,14.85,47.51,1026.38,2038.65,3190.00,2917.10,3295.06,599.98,607.42,25.65,0000 0000 0000 0000 000000
2016-09-19 02:53:04,0.02,0.82,0.00,20.24,26.70,29.80,14.92,47.42,1026.37,2038.88,3190.01,2917.16,3295.08,599.76,607.20,25.70,0000 0000 0000 0000 000000
2016-09-19 02:58:05,-0.00,0.82,0.00,20.29,26.68,29.82,14.88,47.37,1026.38,2038.90,3190.01,2917.23,3295.11,599.67,606.95,25.75,0000 0000 0000 0000 000000
2016-09-19 03:03:06,0.00,0.82,0.00,20.28,26.68,29.82,14.92,47.60,1026.38,2038.94,3190.00,2917.30,3295.12,599.94,607.20,25.80,0000 0000 0000 0000 000000
2016-09-19 03:08:08,0.00,0.82,0.00,20.29,26.67,29.80,14.87,47.45,1026.38,2038.96,3190.00,2917.17,3295.09,600.03,607.36,25.85,0000 0000 0000 0000 000000
2016-09-19 03:13:09,0.00,0.82,0.00,20.32,26.67,29.80,14.89,47.35,1026.37,2038.95,3190.00,2917.18,3295.07,600.14,607.40,25.90,0000 0000 0000 0000 000000
2016-09-19 03:18:10,0.01,0.82,0.00,20.35,26.67,29.81,14.85,47.38,1026.36,2038.96,3190.00,2917.10,3295.06,599.60,606.79,25.95,0000 0000 0000 0000 000000
2016-09-19 03:23:12,0.00,0.82,0.00,20.35,26.68,29.83,14.86,47.36,1026.35,2038.97,3189.99,2917.07,3295.03,599.62,606.80,26.00,0000 0000 0000 0000 000000
2016-09-19 03:28:13,0.00,0.82,0.00,20.33,26.69,29.81,14.83,47.25,1026.29,2038.93,3189.98,2917.04,3295.00,599.88,606.95,26.05,0000 0000 0000 0000 000000
2016-09-19 03:33:14,0.00,0.82,0.00,20.29,26.70,29.81,14.87,47.33,1026.29,2038.93,3189.98,2917.01,3295.00,599.85,607.15,26.10,0000 0000 0000 0000 000000
2016-09-19 03:38:15,-0.00,0.82,0.00,20.31,26.70,29.84,14.95,47.44,1026.29,2038.95,3189.96,2917.02,3295.00,600.15,607.42,26.15,0000 0000 0000 0000 000000
2016-09-19 03:43:17,-0.00,0.82,0.00,20.33,26.70,29.86,14.83,47.33,1026.36,2038.91,3189.79,2917.00,3294.99,599.93,607.08,26.20,0000 0000 0000 0000 000000
2016-09-19 03:48:18,0.00,0.82,0.00,20.33,26.70,29.84,15.00,47.52,1026.37,2038.81,3189.30,2917.00,3294.96,600.33,607.56,26.25,0000 0000 0000 0000 000000
2016-09-19 03:53:19,-0.03,0.82,0.00,20.41,26.72,29.86,14.80,47.36,1026.37,2038.55,3189.09,2917.00,3294.92,599.75,606.78,26.30,0000 0000 0000 0000 000000
2016-09-19 03:58:21,-0.02,0.82,0.00,20.37,26.72,29.87,14.91,47.27,1026.37,2038.21,3189.04,2916.98,3294.75,600.07,607.12,26.35,0000 0000 0000 0000 000000
2016-09-19 04:03:22,0.02,0.82,0.00,20.36,26.72,29.92,14.84,47.39,1026.38,2038.21,3189.01,2916.98,3294.43,599.92,607.15,26.40,0000 0000 0000 0000 000000
2016-09-19 04:08:23,-0.01,0.82,0.00,20.42,26.74,29.94,14.95,47.50,1026.37,2038.10,3189.01,2916.97,3294.24,599.95,606.89,26.45,0000 0000 0000 0000 000000
2016-09-19 04:13:24,0.01,0.82,0.00,20.42,26.75,29.94,14.89,47.57,1026.38,2038.13,3189.01,2916.96,3294.13,600.15,607.29,26.50,0000 0000 0000 0000 000000
2016-09-19 04:18:25,-0.01,0.82,0.00,20.45,26.75,29.93,14.89,47.38,1026.38,2038.12,3189.00,2916.94,3294.10,600.02,606.99,26.55,0000 0000 0000 0000 000000
2016-09-19 04:23:26,0.00,0.82,0.00,20.37,26.77,29.92,14.91,47.45,1026.38,2038.08,3189.00,2916.86,3294.06,600.38,607.58,26.60,0000 0000 0000 0000 000000
2016-09-19 04:28:27,0.01,0.82,0.00,20.44,26.77,29.94,14.79,47.38,1026.38,2038.04,3188.99,2916.40,3294.00,599.88,607.02,26.65,0000 0000 0000 0000 000000
2016-09-19 04:33:28,0.00,0.82,0.00,20.53,26.78,29.95,14.75,47.07,1026.38,2038.03,3188.96,2916.19,3294.00,599.65,606.58,26.70,0000 0000 0000 0000 000000
2016-09-19 04:38:30,0.00,0.82,0.00,20.46,26.80,29.98,14.94,47.56,1026.37,2038.01,3188.95,2916.07,3294.00,600.05,606.94,26.75,0000 0000 0000 0000 000000
2016-09-19 04:43:31,0.01,0.82,0.00,20.52,26.80,30.00,14.85,47.23,1026.33,2038.00,3188.70,2916.04,3293.99,600.01,606.97,26.80,0000 0000 0000 0000 000000
2016-09-19 04:48:32,0.00,0.82,0.00,20.48,26.82,30.00,14.90,47.27,1026.33,2038.00,3188.27,2916.00,3293.96,600.31,607.36,26.85,0000 0000 0000 0000 000000
2016-09-19 04:53:33,0.00,0.82,0.00,20.46,26.82,30.03,14.90,47.43,1026.31,2038.00,3188.04,2916.00,3293.80,600.07,607.15,26.90,0000 0000 0000 0000 000000
2016-09-19 04:58:34,0.01,0.82,0.00,20.47,26.84,30.03,14.92,47.50,1026.30,2038.00,3188.02,2916.00,3293.54,600.34,607.21,26.95,0000 0000 0000 0000 000000
2016-09-19 05:03:35,0.00,0.82,0.00,20.49,26.85,30.02,14.90,47.55,1026.20,2037.99,3188.01,2915.99,3293.13,600.01,606.77,27.00,0000 0000 0000 0000 000000
2016-09-19 05:08:36,0.00,0.82,0.00,20.58,26.86,30.04,14.86,47.26,1026.21,2037.99,3188.01,2915.99,3293.15,599.91,606.64,27.05,0000 0000 0000 0000 000000
2016-09-19 05:13:37,0.00,0.82,0.00,20.57,26.87,30.05,14.91,47.43,1026.09,2037.98,3188.00,2915.95,3293.03,599.97,606.57,27.10,0000 0000 0000 0000 000000
2016-09-19 05:18:38,-0.00,0.82,0.00,20.56,26.89,30.06,14.88,47.38,1026.01,2037.98,3187.99,2915.92,3293.00,599.45,605.89,27.15,0000 0000 0000 0000 000000
2016-09-19 05:23:40,0.00,0.82,0.00,20.53,26.90,30.04,14.82,47.40,1026.04,2037.97,3187.99,2915.67,3293.00,600.20,606.80,27.20,0000 0000 0000 0000 000000
2016-09-19 05:28:41,0.00,0.82,0.00,20.54,26.92,30.09,14.96,47.46,1026.06,2037.92,3187.98,2915.34,3293.00,600.27,606.97,27.25,0000 0000 0000 0000 000000
2016-09-19 05:33:42,0.00,0.82,0.00,20.55,26.92,30.08,14.88,47.17,1026.01,2037.92,3187.97,2915.10,3292.98,600.36,606.95,27.30,0000 0000 0000 0000 000000
2016-09-19 05:38:43,-0.03,0.82,0.00,20.51,26.95,30.12,14.94,47.48,1026.02,2037.63,3187.58,2915.02,3292.87,600.14,606.74,27.35,0000 0000 0000 0000 000000
2016-09-19 05:43:45,0.02,0.82,0.00,20.58,26.96,30.13,14.93,47.36,1026.00,2037.66,3187.25,2915.00,3292.73,600.04,606.49,27.40,0000 0000 0000 0000 000000
2016-09-19 05:48:46,-0.03,0.82,0.00,20.61,26.97,30.13,14.94,47.63,1026.00,2037.19,3187.03,2915.00,3292.12,599.95,606.37,27.45,0000 0000 0000 0000 000000
2016-09-19 05:53:47,-0.00,0.82,0.00,20.68,26.98,30.12,14.84,47.30,1025.96,2037.09,3187.01,2914.99,3292.04,599.72,606.15,27.50,0000 0000 0000 0000 000000
2016-09-19 05:58:49,0.00,0.82,0.00,20.71,27.00,30.16,14.87,47.47,1025.97,2037.04,3187.00,2914.98,3292.02,599.80,605.94,27.55,0000 0000 0000 0000 000000
2016-09-19 06:03:50,-0.00,0.82,0.00,20.64,27.01,30.16,14.90,47.48,1025.96,2037.01,3187.00,2914.96,3292.00,600.36,606.66,27.60,0000 0000 0000 0000 000000
2016-09-19 06:08:51,0.01,0.82,0.00,20.65,27.02,30.16,14.84,47.38,1025.97,2037.01,3186.96,2914.78,3291.99,599.87,606.36,27.65,0000 0000 0000 0000 000000
2016-09-19 06:13:53,0.02,0.82,0.00,20.68,27.03,30.16,14.93,47.79,1025.98,2037.01,3186.47,2914.22,3291.98,599.99,606.34,27.70,0000 0000 0000 0000 000000
2016-09-19 06:18:54,0.02,0.82,0.00,20.73,27.05,30.19,14.77,47.68,1025.98,2037.01,3186.02,2914.04,3291.59,600.00,606.24,27.75,0000 0000 0000 0000 000000
2016-09-19 06:23:55,0.00,0.82,0.00,20.64,27.06,30.19,14.84,47.63,1025.97,2037.00,3185.97,2914.00,3291.02,600.00,606.28,27.80,0000 0000 0000 0000 000000
2016-09-19 06:28:56,0.00,0.82,0.00,20.55,27.07,30.24,14.91,47.71,1026.01,2037.00,3185.74,2913.98,3291.00,600.05,606.63,27.85,0000 0000 0000 0000 000000
2016-09-19 06:33:58,0.00,0.82,0.00,20.62,27.07,30.27,14.87,47.68,1025.99,2037.00,3185.24,2913.94,3290.99,600.10,606.46,27.90,0000 0000 0000 0000 000000
2016-09-19 06:38:59,0.01,0.82,0.00,20.71,27.10,30.29,14.83,47.67,1025.98,2037.00,3185.06,2913.69,3290.97,599.97,606.15,27.95,0000 0000 0000 0000 000000
2016-09-19 06:44:00,0.01,0.82,0.00,20.73,27.10,30.28,14.90,47.75,1026.01,2037.00,3185.01,2913.36,3290.90,600.00,606.20,28.00,0000 0000 0000 0000 000000
2016-09-19 06:49:02,0.01,0.82,0.00,20.81,27.11,30.30,14.89,47.64,1026.08,2037.00,3185.00,2913.08,3290.40,600.09,606.18,28.05,0000 0000 0000 0000 000000
2016-09-19 06:54:03,0.00,0.82,0.00,20.84,27.12,30.31,14.88,47.60,1026.01,2036.99,3184.99,2913.02,3290.08,600.26,606.23,28.10,0000 0000 0000 0000 000000
2016-09-19 06:59:04,0.00,0.82,0.00,20.82,27.12,30.28,14.87,47.58,1025.95,2036.99,3184.93,2913.00,3290.02,600.32,606.25,28.15,0000 0000 0000 0000 000000
2016-09-19 07:04:06,0.01,0.82,0.00,20.81,27.15,30.32,14.98,47.67,1025.96,2036.98,3184.23,2912.99,3290.00,600.34,606.36,28.20,0000 0000 0000 0000 000000
2016-09-19 07:09:07,-0.00,0.82,0.00,20.88,27.15,30.33,14.93,47.67,1025.99,2036.93,3184.00,2912.92,3289.94,600.06,605.93,28.25,0000 0000 0000 0000 000000
2016-09-19 07:14:08,0.02,0.82,0.00,20.86,27.15,30.32,14.88,47.74,1025.96,2036.92,3184.00,2912.79,3289.82,599.72,605.62,28.30,0000 0000 0000 0000 000000
2016-09-19 07:19:09,0.02,0.83,0.00,20.89,27.17,30.35,14.88,47.60,1025.99,2036.91,3183.97,2912.27,3289.29,600.05,605.91,28.35,0000 0000 0000 0000 000000
2016-09-19 07:24:10,0.01,0.83,0.00,20.84,27.17,30.33,14.84,47.67,1025.99,2036.91,3183.53,2912.03,3289.02,599.72,605.67,28.40,0000 0000 0000 0000 000000
2016-09-19 07:29:11,0.00,0.83,0.00,20.81,27.19,30.38,14.82,47.63,1025.95,2036.92,3183.06,2912.01,3289.00,599.64,605.82,28.45,0000 0000 0000 0000 000000
2016-09-19 07:34:13,-0.04,0.83,0.00,20.83,27.20,30.38,14.94,47.75,1025.92,2036.55,3182.97,2911.97,3288.80,600.18,606.01,28.50,0000 0000 0000 0000 000000
2016-09-19 07:39:14,0.03,0.83,0.00,20.86,27.22,30.40,14.83,47.56,1025.93,2036.20,3182.32,2911.52,3288.12,599.82,605.65,28.55,0000 0000 0000 0000 000000
2016-09-19 07:44:15,0.01,0.83,0.00,20.89,27.22,30.37,14.86,47.57,1025.92,2036.14,3182.01,2911.04,3288.00,600.11,605.83,28.60,0000 0000 0000 0000 000000
2016-09-19 07:49:16,0.01,0.83,0.00,20.79,27.25,30.42,14.86,47.73,1025.94,2036.06,3181.74,2910.96,3287.82,599.69,605.71,28.65,0000 0000 0000 0000 000000
2016-09-19 07:54:17,0.03,0.83,0.00,20.75,27.26,30.42,14.93,47.69,1026.00,2036.01,3181.04,2910.42,3287.08,600.45,606.51,28.70,0000 0000 0000 0000 000000
2016-09-19 07:59:18,0.00,0.83,0.00,20.77,27.27,30.44,14.79,47.67,1025.99,2036.00,3180.99,2910.02,3287.00,599.89,606.11,28.75,0000 0000 0000 0000 000000
2016-09-19 08:04:20,0.00,0.83,0.00,20.82,27.29,30.50,14.85,47.66,1026.02,2036.01,3180.94,2910.00,3286.99,599.95,606.09,28.80,0000 0000 0000 0000 000000
2016-09-19 08:09:21,0.03,0.83,0.00,21.02,27.31,30.53,14.84,47.52,1026.12,2036.00,3180.24,2909.97,3286.47,600.04,605.65,28.85,0000 0000 0000 0000 000000
2016-09-19 08:14:22,0.02,0.83,0.00,21.05,27.32,30.57,14.83,47.63,1026.14,2036.00,3179.99,2909.55,3286.01,599.93,605.48,28.91,0000 0000 0000 0000 000000
2016-09-19 08:19:24,0.04,0.83,0.00,21.18,27.35,30.51,14.93,47.67,1026.20,2036.00,3179.17,2908.92,3285.51,600.47,605.88,28.96,0000 0000 0000 0000 000000
2016-09-19 08:24:25,0.05,0.84,0.00,21.34,27.37,30.50,14.85,47.57,1026.17,2035.99,3178.12,2908.06,3284.68,600.16,605.19,29.01,0000 0000 0000 0000 000000
2016-09-19 08:29:26,0.06,0.84,0.00,21.45,27.39,30.53,14.85,47.51,1026.26,2035.98,3176.85,2907.18,3283.63,599.89,604.86,29.06,0000 0000 0000 0000 000000
2016-09-19 08:34:28,0.08,0.84,0.00,21.54,27.41,30.54,14.79,47.49,1026.29,2035.98,3175.24,2905.98,3282.38,599.69,604.32,29.11,0000 0000 0000 0000 000000
2016-09-19 08:39:29,0.07,0.85,0.00,21.62,27.43,30.55,14.84,47.41,1026.36,2035.88,3173.55,2904.79,3281.00,599.97,604.64,29.16,0000 0000 0000 0000 000000
2016-09-19 08:44:30,0.06,0.85,0.00,21.69,27.46,30.58,14.81,47.44,1026.38,2035.72,3171.97,2903.68,3279.71,600.03,604.43,29.21,0000 0000 0000 0000 000000
2016-09-19 08:49:31,0.05,0.85,0.00,21.70,27.48,30.62,14.85,47.38,1026.38,2035.37,3170.39,2902.53,3278.48,600.61,604.97,29.26,0000 0000 0000 0000 000000
2016-09-19 08:54:33,0.07,0.86,0.00,21.53,27.50,30.68,14.76,47.33,1026.38,2035.07,3168.47,2901.19,3276.94,599.74,604.50,29.31,0000 0000 0000 0000 000000
2016-09-19 08:59:34,0.09,0.86,0.00,21.53,27.52,30.78,14.79,47.42,1026.38,2035.03,3166.63,2899.77,3275.54,600.25,605.10,29.36,0000 0000 0000 0000 000000
2016-09-19 09:04:35,0.10,0.87,0.00,21.49,27.55,30.91,14.85,47.37,1026.37,2035.00,3164.47,2898.37,3273.81,600.07,605.05,29.41,0000 0000 0000 0000 000000
2016-09-19 09:09:36,0.12,0.87,0.00,21.36,27.56,30.93,14.85,47.41,1026.38,2035.00,3162.20,2896.60,3272.06,599.67,604.80,29.46,0000 0000 0000 0000 000000
2016-09-19 09:14:38,0.14,0.88,0.00,21.30,27.57,30.90,14.85,47.52,1026.38,2035.00,3159.35,2894.47,3269.63,599.94,605.21,29.51,0000 0000 0000 0000 000000
2016-09-19 09:19:39,0.12,0.88,0.00,21.16,27.58,30.85,14.79,47.36,1026.38,2034.99,3157.02,2892.75,3267.79,599.88,605.41,29.56,0000 0000 0000 0000 000000
2016-09-19 09:24:40,0.12,0.89,0.00,21.16,27.59,30.84,14.89,47.61,1026.38,2034.98,3154.56,2890.99,3265.88,600.25,605.81,29.61,0000 0000 0000 0000 000000
2016-09-19 09:29:42,0.13,0.90,0.00,21.12,27.60,30.82,14.85,47.42,1026.37,2034.98,3151.86,2889.05,3263.77,599.90,605.53,29.66,0000 0000 0000 0000 000000
2016-09-19 09:34:43,0.14,0.91,0.00,21.03,27.60,30.82,14.89,47.48,1026.36,2034.98,3148.93,2886.87,3261.59,600.19,605.93,29.71,0000 0000 0000 0000 000000
2016-09-19 09:39:44,0.13,0.91,0.00,21.08,27.60,30.85,14.86,47.34,1026.38,2034.97,3146.21,2884.92,3259.45,600.17,605.90,29.76,0000 0000 0000 0000 000000
2016-09-19 09:44:45,0.15,0.92,0.00,21.18,27.60,30.82,14.79,47.46,1026.38,2034.97,3143.08,2882.82,3257.13,599.90,605.32,29.81,0000 0000 0000 0000 000000
2016-09-19 09:49:47,0.16,0.93,0.00,21.07,27.60,30.81,14.92,47.52,1026.38,2034.96,3139.79,2880.50,3254.69,599.90,605.60,29.86,0000 0000 0000 0000 000000
2016-09-19 09:54:48,0.14,0.94,0.00,21.03,27.60,30.79,14.87,47.35,1026.38,2034.97,3136.71,2878.49,3252.27,600.24,605.98,29.91,0000 0000 0000 0000 000000
2016-09-19 09:59:49,0.21,0.95,0.00,21.12,27.59,30.84,14.89,47.33,1026.38,2034.99,3132.84,2875.74,3249.20,599.98,605.59,29.96,0000 0000 0000 0000 000000
2016-09-19 10:04:51,0.23,0.96,0.00,21.07,27.58,30.83,14.85,47.48,1026.38,2034.97,3128.10,2872.66,3245.82,599.90,605.64,30.01,0000 0000 0000 0000 000000
2016-09-19 10:09:52,0.29,0.97,0.00,20.93,27.57,30.82,14.79,47.38,1026.38,2034.96,3122.10,2869.05,3241.86,599.59,605.59,30.06,0000 0000 0000 0000 000000
2016-09-19 10:14:53,0.28,0.99,0.00,20.98,27.57,30.83,14.82,47.64,1026.38,2034.95,3115.58,2865.25,3237.71,599.63,605.52,30.11,0000 0000 0000 0000 000000
2016-09-19 10:19:55,0.23,1.00,0.00,20.99,27.57,30.82,14.90,47.46,1026.38,2034.97,3110.11,2862.19,3234.34,600.10,606.10,30.16,0000 0000 0000 0000 000000
2016-09-19 10:24:56,0.18,1.01,0.00,21.03,27.55,30.83,14.85,47.36,1026.38,2034.98,3105.60,2859.74,3231.63,599.88,605.48,30.21,0000 0000 0000 0000 000000
2016-09-19 10:29:57,0.16,1.02,0.00,20.99,27.55,30.81,14.95,47.44,1026.38,2034.98,3101.87,2857.64,3229.29,600.55,606.43,30.26,0000 0000 0000 0000 000000
2016-09-19 10:34:58,0.15,1.02,0.00,21.03,27.53,30.78,14.87,47.41,1026.38,2034.98,3098.44,2855.62,3227.08,599.91,605.70,30.31,0000 0000 0000 0000 000000
2016-09-19 10:40:00,0.14,1.03,0.00,21.04,27.52,30.76,14.86,47.43,1026.38,2034.99,3095.31,2853.71,3225.02,599.99,605.72,30.36,0000 0000 0000 0000 000000
2016-09-19 10:45:01,0.18,1.04,0.00,20.97,27.51,30.77,14.92,47.49,1026.38,2034.99,3091.65,2851.38,3222.44,599.78,605.54,30.41,0000 0000 0000 0000 000000
2016-09-19 10:50:03,0.18,1.05,0.00,20.97,27.50,30.75,14.87,47.50,1026.38,2034.99,3087.76,2848.77,3219.59,599.99,605.90,30.46,0000 0000 0000 0000 000000
2016-09-19 10:55:04,0.18,1.06,0.00,20.94,27.50,30.73,14.85,47.42,1026.39,2034.99,3084.01,2846.34,3216.96,599.54,605.49,30.51,0000 0000 0000 0000 000000
2016-09-19 11:00:05,0.22,1.07,0.00,20.91,27.47,30.75,14.87,47.46,1026.38,2034.99,3079.49,2843.59,3213.91,600.16,606.11,30.56,0000 0000 0000 0000 000000
2016-09-19 11:05:07,0.20,1.08,0.00,20.88,27.47,30.75,14.88,47.51,1026.38,2034.99,3075.08,2840.87,3210.95,599.96,606.15,30.61,0000 0000 0000 0000 000000
2016-09-19 11:10:08,0.17,1.09,0.00,20.79,27.46,30.74,14.91,47.67,1026.38,2034.99,3071.27,2838.51,3208.40,600.10,606.39,30.66,0000 0000 0000 0000 000000
2016-09-19 11:15:09,0.18,1.10,0.00,20.82,27.45,30.73,14.90,47.59,1026.38,2034.99,3067.46,2836.17,3205.73,599.92,606.14,30.71,0000 0000 0000 0000 000000
2016-09-19 11:20:11,0.18,1.11,0.00,20.86,27.43,30.70,14.90,47.45,1026.38,2034.99,3063.66,2833.65,3203.00,599.85,606.03,30.76,0000 0000 0000 0000 000000
2016-09-19 11:25:12,0.18,1.12,0.00,20.85,27.42,30.64,14.83,47.64,1026.38,2035.00,3059.92,2831.19,3200.35,600.09,606.26,30.81,0000 0000 0000 0000 000000
2016-09-19 11:30:13,0.17,1.13,0.00,20.83,27.42,30.70,14.90,47.60,1026.38,2035.01,3056.44,2828.95,3197.98,600.04,606.23,30.86,0000 0000 0000 0000 000000
2016-09-19 11:35:14,0.16,1.13,0.00,20.84,27.40,30.62,14.84,47.58,1026.37,2035.00,3052.93,2826.67,3195.52,599.63,605.78,30.91,0000 0000 0000 0000 000000
2016-09-19 11:40:15,0.14,1.14,0.00,20.83,27.40,30.67,14.88,47.51,1026.38,2035.01,3049.87,2824.69,3193.30,599.75,606.05,30.96,0000 0000 0000 0000 000000
2016-09-19 11:45:17,0.13,1.15,0.00,20.86,27.39,30.63,14.90,47.59,1026.38,2035.01,3047.11,2822.85,3191.29,599.85,606.02,31.01,0000 0000 0000 0000 000000
2016-09-19 11:50:18,0.15,1.16,0.00,20.85,27.37,30.65,14.91,47.51,1026.38,2035.05,3044.21,2820.99,3189.25,600.04,606.20,31.06,0000 0000 0000 0000 000000
2016-09-19 11:55:20,0.17,1.17,0.00,20.82,27.37,30.63,14.90,47.63,1026.38,2035.07,3040.81,2818.75,3186.79,600.31,606.48,31.11,0000 0000 0000 0000 000000
2016-09-19 12:00:21,0.20,1.17,0.00,20.83,27.36,30.63,14.79,47.42,1026.37,2035.27,3037.16,2816.49,3184.27,599.62,605.82,31.16,0000 0000 0000 0000 000000
2016-09-19 12:05:22,0.18,1.19,0.00,20.81,27.35,30.63,14.91,47.54,1026.38,2035.30,3033.28,2814.05,3181.49,600.03,606.31,31.21,0000 0000 0000 0000 000000
2016-09-19 12:10:23,0.15,1.19,0.00,20.79,27.35,30.61,14.88,47.50,1026.38,2035.24,3030.30,2812.08,3179.30,600.28,606.50,31.26,0000 0000 0000 0000 000000
2016-09-19 12:15:24,0.13,1.20,0.00,20.76,27.34,30.62,14.87,47.57,1026.38,2035.42,3027.56,2810.30,3177.38,599.95,606.29,31.31,0000 0000 0000 0000 000000
2016-09-19 12:20:25,0.15,1.21,0.00,20.79,27.32,30.59,14.87,47.56,1026.37,2035.45,3024.91,2808.58,3175.46,599.96,606.34,31.36,0000 0000 0000 0000 000000
2016-09-19 12:25:27,0.16,1.22,0.00,20.82,27.32,30.59,14.91,47.61,1026.37,2035.75,3022.28,2806.82,3173.54,599.95,606.13,31.41,0000 0000 0000 0000 000000
2016-09-19 12:30:28,0.12,1.22,0.00,20.81,27.32,30.56,14.92,47.52,1026.38,2035.80,3019.77,2805.15,3171.74,600.15,606.52,31.46,0000 0000 0000 0000 000000
2016-09-19 12:35:29,0.09,1.23,0.00,20.78,27.31,30.58,14.86,47.60,1026.37,2035.68,3017.53,2803.66,3170.11,599.59,605.89,31.51,0000 0000 0000 0000 000000
2016-09-19 12:40:31,0.12,1.23,0.00,20.76,27.30,30.52,14.97,47.67,1026.37,2035.84,3015.33,2802.20,3168.48,600.34,606.77,31.56,0000 0000 0000 0000 000000
2016-09-19 12:45:32,0.12,1.24,0.00,20.74,27.30,30.55,14.92,47.69,1026.38,2035.94,3013.12,2800.72,3166.83,600.28,606.66,31.61,0000 0000 0000 0000 000000
2016-09-19 12:50:33,0.11,1.25,0.00,20.76,27.30,30.53,14.94,47.55,1026.37,2035.95,3010.86,2799.23,3165.16,600.13,606.43,31.66,0000 0000 0000 0000 000000
2016-09-19 12:55:34,0.12,1.25,0.00,20.75,27.29,30.54,14.96,47.66,1026.38,2035.96,3008.45,2797.61,3163.43,599.79,606.30,31.71,0000 0000 0000 0000 000000